Regional Weather Roundup
Issued by NWS Charleston, SC

Current Version | Previous Version | Graphics & Text | Print | Product List | Glossary On
Versions: 1 2 3 4 5 6 7 8 9 10 11 12 13 14 15 16 17 18 19 20 21 22 23 24 25 26 27 28 29 30 31 32 33 34 35 36 37 38 39 40 41 42 43 44 45 46 47 48 49 50
000 ASUS42 KCHS 232210 RWRCHS REGIONAL WEATHER ROUNDUP NATIONAL WEATHER SERVICE CHARLESTON SC 600 PM EDT TUE SEP 23 2014 NOTE: "FAIR" INDICATES FEW OR NO CLOUDS BELOW 12,000 FEET WITH NO SIGNIFICANT WEATHER AND/OR OBSTRUCTIONS TO VISIBILITY. NOT ALL STATIONS ARE QUALITY CONTROLLED BY THE NATIONAL WEATHER SERVICE. USE DATA WITH CAUTION...ESPECIALLY DEWPOINT OBSERVATIONS. SCZ027-030-031-034>040-042>050-232300- ...SOUTH CAROLINA... CITY SKY/WX TMP DP RH WIND PRES REMARKS N CHARLESTON CLOUDY 64 60 87 N13G22 30.15S WATERFRONT PRK NOT AVBL FORT JOHNSON NOT AVBL MOUNT PLEASANT LGT RAIN 64 63 94 N7 30.15R JOHNS ISLAND CLOUDY 64 64 100 N13 30.14R PINOPOLIS N/A 64 61 88 N18 30.10F MONCKS CORNER N/A 64 61 88 NE10G16 30.17S SUMMERVILLE CLOUDY 63 63 100 N12 30.18R BEAUFORT MCAS CLOUDY 69 63 81 N10 30.13S BEAUFORT ARPT CLOUDY 68 64 88 N17G25 30.13R HILTON HEAD IS CLOUDY 70 66 88 N14G25 30.13R GEORGETOWN NOT AVBL WALTERBORO CLOUDY 66 66 100 NE5 30.16F ORANGEBURG CLOUDY 68 56 65 NE9 30.19S BARNWELL MOCLDY 70 61 73 NE13 30.18S AIKEN MOCLDY 64 61 88 NE15 30.24S MANNING FAIR 64 57 77 N16G24 30.19F KINGSTREE NOT AVBL COLUMBIA PTSUNNY 65 55 70 N10 30.22S SUMTER PTSUNNY 67 55 66 NE16 30.20F FLORENCE LGT RAIN 61 58 90 N8 30.23R MYRTLE BEACH RAIN 61 57 88 N17 30.18S N MYRTLE BEACH HVY RAIN 61 58 90 N15G22 30.17S FOG $$ GAZ063-065-086>088-099>101-113>116-118-119-134-136>141-150-232300- ...GEORGIA... CITY SKY/WX TMP DP RH WIND PRES REMARKS SAVANNAH ARPT PTSUNNY 73 64 73 NE13 30.11S HUNTER AAF PTSUNNY 74 65 75 NE8G18 30.09S FORT STEWART PTSUNNY 76 65 68 N16 30.09R STATESBORO NOT AVBL SYLVANIA CLOUDY 73 67 83 E8G17 30.16S CLAXTON CLOUDY 73 68 83 NE9 30.12R THOMSON CLOUDY 70 65 85 NE7 30.24S AUGUSTA-BUSH CLOUDY 69 59 70 NE12 30.18R AUGUSTA-DANIEL CLOUDY 69 59 70 N9 30.20R SWAINSBORO FAIR 75 68 78 NE9 30.15R VIDALIA MOSUNNY 75 66 73 NE13G18 30.12S ALMA MOSUNNY 78 64 61 VRB7 30.08R WAYCROSS PTSUNNY 81 66 60 E7 30.06R JESUP CLOUDY 79 68 69 E10G20 30.08R BRUNSWICK PTSUNNY 75 66 73 NE12G28 30.08R SAINT SIMONS PTSUNNY 75 67 76 NE22G28 30.06S $$ SCZ027-028-034-036>038-045-046-048>050-GAZ119-141-232300- ...LAKE AND SUPPLEMENTAL COASTAL OBSERVATIONS... STATION/POSITION TIME TEMP WIND PRES WAVE SWELL AIR SEA DIR/SP/G HT/PER HT/PER/DIR (UTC) (F) (DEG/KT/KT) (MB) (FT/S) (FT/S/D) UPR LAKE MARION NOT AVBL WINYAH BAY 2100 64 10/ 8 1021.0S LAKE MURRAY 2100 64 40/ 5/ 8 1023.0F ACE BASIN NERRS 2100 67 20/ 5 1020.0S FORT PULASKI 2200 72 20/ 15/ 19 1019.6R SAPELO ISLAND NOT AVBL $$ ANZ835-935-AMZ111-154-330-350-352-354-374-450-454-472-232300- ...C-MAN AND BUOY OBSERVATIONS... STATION/POSITION TIME TEMP WIND PRES WAVE SWELL AIR SEA DIR/SP/G HT/PER HT/PER/DIR (UTC) (F) (DEG/KT/KT) (MB) (FT/S) (FT/S/D) FOLLY BEACH CMAN 2100 68 350/ 14/ 17 1020.4F BUOY 41004 2200 73 81 10/ 29/ 35 1017.4R 9/ 7 BUOY 41008 2200 76 82 40/ 23/ 29 1017.3R 7/ 6 5E ST. MARYS GA 2200 82 N/A 6/ 6 FRYING PAN BUOY NOT AVBL BUOY 41025 2200 74 10/ 25/ 33 1019.7F 7/ 6 CAPE LOOKOUT NC 2100 66 20/ 23/ 27 1021.3F BUOY 41002 2111 78 80 120/ 10/ 12 1018.3R 3/ 7 2/120/ 7 BUOY 41010 2200 75 84 210/ 16/ 17 1015.8R 3/ 7 2/100/ 7 BUOY 41012 NOT AVBL ST AUGUSTINE FL 2200 76 20/ 22/ 24 1016.9R CAPERS NEARSHORE 2100 70 30/ 21/ 25 N/A FRIPP NEARSHORE NOT AVBL $$

USA.gov is the U.S. government's official web portal to all federal, state and local government web resources and services.